^^
Datos históricos de la estación: Murcia-Puente Tocinos
Diario Informe para Abril 21, 2017 Unidades:  Inglés    Métrico   Ambas
« Anterior Día
Siguiente Día »
Diario Semanal Mensual Anual Configurable
  Máximo: Mínimo: Media:
Temperatura: 63.7 °F 53.2 °F 58.5 °F
Punto de rocio: 46.6 °F 38.8 °F 42.3 °F
Humedad: 70% 43% 55%
Velocidad viento: 15.2mph 2.4mph 8.8mph
Racha viento: 35.1mph - -
Viento- - ENE
Presión: 30.3 in 30.2 in -
Precipitación: 0 in    
Historical Graphs
 
 
Tabla de datos para Abril 21, 2017
Hora Temperatura Punto de rocio Presión Viento Velocidad viento Racha viento Humedad Intensidad lluvia(por hora) Nubes
00:04 55.6 °F 43.2 °F 30.3 in NNE 6.2 mph 35.1 mph 63% 0 in SCT
00:09 55.2 °F 42.8 °F 30.3 in NNE 5.4 mph 35.1 mph 63% 0 in SCT
00:14 55 °F 43.2 °F 30.3 in ENE 5.4 mph 35.1 mph 64% 0 in FEW
00:19 55 °F 43.2 °F 30.3 in NE 5.2 mph 35.1 mph 64% 0 in FEW
00:24 55 °F 43.2 °F 30.3 in NE 5.2 mph 35.1 mph 64% 0 in FEW
00:29 54.9 °F 43 °F 30.3 in North 5.4 mph 35.1 mph 64% 0 in FEW
00:34 54.9 °F 43 °F 30.3 in NE 5.4 mph 35.1 mph 64% 0 in FEW
00:39 54.9 °F 43 °F 30.3 in NE 4 mph 35.1 mph 64% 0 in FEW
00:44 54.9 °F 43 °F 30.3 in NNE 4 mph 35.1 mph 64% 0 in FEW
00:49 54.9 °F 43 °F 30.3 in WNW 3.1 mph 35.1 mph 64% 0 in FEW
00:54 54.9 °F 42.4 °F 30.3 in North 3.1 mph 35.1 mph 63% 0 in FEW
00:59 54.9 °F 42.4 °F 30.3 in NW 2.4 mph 35.1 mph 63% 0 in FEW
01:04 54.9 °F 42.4 °F 30.3 in NNW 2.4 mph 35.1 mph 63% 0 in FEW
01:09 54.9 °F 42.1 °F 30.3 in North 2.4 mph 35.1 mph 62% 0 in FEW
01:14 54.9 °F 41.7 °F 30.3 in North 2.4 mph 35.1 mph 61% 0 in FEW
01:19 55 °F 41.4 °F 30.3 in North 2.9 mph 35.1 mph 60% 0 in SCT
01:25 55.2 °F 41.2 °F 30.2 in NNE 2.9 mph 35.1 mph 59% 0 in FEW
01:30 55.2 °F 40.6 °F 30.2 in North 4 mph 35.1 mph 58% 0 in FEW
01:35 55.4 °F 40.8 °F 30.2 in NNW 4 mph 35.1 mph 58% 0 in FEW
01:40 55.6 °F 40.6 °F 30.2 in NNW 2.9 mph 35.1 mph 57% 0 in FEW
01:45 55.6 °F 40.1 °F 30.2 in NNW 2.9 mph 35.1 mph 56% 0 in FEW
01:50 55.8 °F 40.3 °F 30.3 in North 2.4 mph 35.1 mph 56% 0 in FEW
01:55 55.9 °F 40.5 °F 30.3 in North 2.4 mph 35.1 mph 56% 0 in FEW
02:00 56.1 °F 40.3 °F 30.3 in NNE 3.6 mph 35.1 mph 55% 0 in FEW
02:05 56.1 °F 40.3 °F 30.2 in NNE 3.6 mph 35.1 mph 55% 0 in FEW
02:10 56.1 °F 40.3 °F 30.2 in NE 3.6 mph 35.1 mph 55% 0 in FEW
02:15 56.3 °F 40.3 °F 30.2 in NNE 3.6 mph 35.1 mph 55% 0 in CLR
02:20 56.3 °F 40.3 °F 30.2 in North 3.1 mph 35.1 mph 55% 0 in CLR
02:25 56.5 °F 41 °F 30.2 in NE 3.1 mph 35.1 mph 56% 0 in CLR
02:30 56.7 °F 41.2 °F 30.2 in NE 4.3 mph 35.1 mph 56% 0 in CLR
02:35 56.7 °F 41.5 °F 30.2 in WNW 4.3 mph 35.1 mph 57% 0 in CLR
02:40 56.7 °F 41.2 °F 30.2 in WNW 4.7 mph 35.1 mph 56% 0 in CLR
02:45 56.8 °F 41.7 °F 30.2 in NNW 4.7 mph 35.1 mph 57% 0 in CLR
02:50 56.8 °F 41.7 °F 30.2 in NNE 4.7 mph 35.1 mph 57% 0 in CLR
02:55 56.8 °F 41.7 °F 30.2 in North 4.7 mph 35.1 mph 57% 0 in CLR
03:00 56.8 °F 41.7 °F 30.2 in NE 4 mph 35.1 mph 57% 0 in CLR
03:06 56.8 °F 41.7 °F 30.2 in NNE 4 mph 35.1 mph 57% 0 in CLR
03:11 56.8 °F 41.7 °F 30.2 in NNE 5.2 mph 35.1 mph 57% 0 in CLR
03:16 56.8 °F 41.7 °F 30.2 in NNE 5.2 mph 35.1 mph 57% 0 in CLR
03:21 56.7 °F 41.5 °F 30.2 in NE 6.4 mph 35.1 mph 57% 0 in CLR
03:26 56.7 °F 41.5 °F 30.2 in NNE 6.4 mph 35.1 mph 57% 0 in CLR
03:31 56.7 °F 42.1 °F 30.2 in NNE 5.2 mph 35.1 mph 58% 0 in CLR
03:36 56.7 °F 42.1 °F 30.2 in NE 5.2 mph 35.1 mph 58% 0 in CLR
03:41 56.7 °F 41.5 °F 30.2 in NNW 5.4 mph 35.1 mph 57% 0 in CLR
03:46 56.7 °F 41.5 °F 30.2 in NNE 5.4 mph 35.1 mph 57% 0 in CLR
03:51 56.7 °F 42.1 °F 30.2 in NE 5.4 mph 35.1 mph 58% 0 in CLR
03:56 56.5 °F 41.9 °F 30.2 in North 5.2 mph 35.1 mph 58% 0 in CLR
04:01 56.5 °F 42.3 °F 30.2 in NNE 5.2 mph 35.1 mph 59% 0 in CLR
04:06 56.3 °F 42.1 °F 30.2 in North 4.7 mph 35.1 mph 59% 0 in CLR
04:11 56.1 °F 42.1 °F 30.2 in NW 4.7 mph 35.1 mph 59% 0 in CLR
04:16 56.1 °F 42.1 °F 30.2 in NNW 4.3 mph 35.1 mph 59% 0 in CLR
04:21 56.1 °F 42.4 °F 30.2 in North 4.3 mph 35.1 mph 60% 0 in CLR
04:26 56.1 °F 42.1 °F 30.2 in NNE 4.7 mph 35.1 mph 59% 0 in CLR
04:31 56.1 °F 42.4 °F 30.2 in NNE 4.7 mph 35.1 mph 60% 0 in CLR
04:36 56.1 °F 42.4 °F 30.2 in NE 3.1 mph 35.1 mph 60% 0 in CLR
04:41 56.1 °F 42.1 °F 30.2 in North 3.1 mph 35.1 mph 59% 0 in CLR
04:46 56.3 °F 42.1 °F 30.2 in NNE 4.7 mph 35.1 mph 59% 0 in CLR
04:51 56.1 °F 42.1 °F 30.2 in NNE 4.7 mph 35.1 mph 59% 0 in CLR
04:56 56.1 °F 42.1 °F 30.2 in NNE 4.7 mph 35.1 mph 59% 0 in CLR
05:01 56.1 °F 42.4 °F 30.2 in NE 4.7 mph 35.1 mph 60% 0 in CLR
05:06 56.1 °F 42.4 °F 30.2 in NNE 4.3 mph 35.1 mph 60% 0 in CLR
05:11 55.9 °F 42.3 °F 30.2 in NNW 4.3 mph 35.1 mph 60% 0 in CLR
05:17 55.8 °F 42.4 °F 30.2 in NNE 4.3 mph 35.1 mph 61% 0 in CLR
05:22 55.8 °F 42.4 °F 30.2 in North 4.3 mph 35.1 mph 61% 0 in CLR
05:27 55.8 °F 42.4 °F 30.2 in NNE 2.9 mph 35.1 mph 61% 0 in CLR
05:32 55.6 °F 42.3 °F 30.2 in NNE 2.9 mph 35.1 mph 61% 0 in CLR
05:37 55.6 °F 42.3 °F 30.2 in NNE 2.9 mph 35.1 mph 61% 0 in CLR
05:42 55.6 °F 42.3 °F 30.2 in NNE 2.9 mph 35.1 mph 61% 0 in CLR
05:47 55.6 °F 42.3 °F 30.2 in NE 3.1 mph 35.1 mph 61% 0 in CLR
05:53 55.2 °F 42.4 °F 30.2 in NNE 3.1 mph 35.1 mph 62% 0 in CLR
05:58 55.2 °F 42.4 °F 30.2 in NNE 4.3 mph 35.1 mph 62% 0 in CLR
06:03 55.2 °F 42.4 °F 30.2 in NE 4.3 mph 35.1 mph 62% 0 in CLR
06:08 55.2 °F 42.4 °F 30.2 in North 5.2 mph 35.1 mph 62% 0 in CLR
06:13 55 °F 42.3 °F 30.2 in North 5.2 mph 35.1 mph 62% 0 in CLR
06:18 54.9 °F 42.1 °F 30.2 in NE 4.3 mph 35.1 mph 62% 0 in CLR
06:23 54.9 °F 42.1 °F 30.2 in NE 4.3 mph 35.1 mph 62% 0 in CLR
06:28 54.9 °F 42.1 °F 30.2 in NE 5.2 mph 35.1 mph 62% 0 in CLR
06:33 54.7 °F 41.9 °F 30.2 in ENE 5.2 mph 35.1 mph 62% 0 in CLR
06:38 54.5 °F 41.7 °F 30.2 in North 5.2 mph 35.1 mph 62% 0 in CLR
06:43 54.3 °F 41.5 °F 30.2 in NE 5.2 mph 35.1 mph 62% 0 in CLR
06:48 54.1 °F 41.7 °F 30.2 in NNE 4.7 mph 35.1 mph 63% 0 in CLR
06:53 54 °F 41.5 °F 30.2 in NE 4.7 mph 35.1 mph 63% 0 in CLR
06:58 53.8 °F 41.5 °F 30.2 in NNE 5.9 mph 35.1 mph 63% 0 in CLR
07:03 53.6 °F 41.4 °F 30.2 in NNE 5.9 mph 35.1 mph 63% 0 in
07:08 53.4 °F 40.6 °F 30.2 in NNE 5.4 mph 35.1 mph 62% 0 in
07:13 53.4 °F 40.6 °F 30.2 in NNE 5.4 mph 35.1 mph 62% 0 in
07:18 53.4 °F 40.6 °F 30.2 in NE 5.4 mph 35.1 mph 62% 0 in
07:23 53.4 °F 40.6 °F 30.2 in NNE 5.4 mph 35.1 mph 62% 0 in
07:28 53.4 °F 40.6 °F 30.2 in NE 5.9 mph 35.1 mph 62% 0 in
07:33 53.2 °F 40.5 °F 30.2 in NNE 5.9 mph 35.1 mph 62% 0 in
07:38 53.2 °F 40.5 °F 30.2 in NE 5.4 mph 35.1 mph 62% 0 in
07:43 53.2 °F 40.5 °F 30.2 in NNE 5.4 mph 35.1 mph 62% 0 in
07:48 53.2 °F 40.5 °F 30.2 in NE 5.9 mph 35.1 mph 62% 0 in
07:53 53.2 °F 40.5 °F 30.2 in North 5.9 mph 35.1 mph 62% 0 in
07:58 53.2 °F 40.5 °F 30.2 in NNE 4.7 mph 35.1 mph 62% 0 in
08:03 53.4 °F 40.6 °F 30.2 in NE 4.7 mph 35.1 mph 62% 0 in
08:08 53.6 °F 40.5 °F 30.2 in North 4 mph 35.1 mph 61% 0 in
08:13 53.6 °F 40.8 °F 30.2 in NNE 4 mph 35.1 mph 62% 0 in
08:18 53.8 °F 41.2 °F 30.2 in NNE 4 mph 35.1 mph 62% 0 in FEW
08:23 54 °F 41.2 °F 30.2 in NNE 4 mph 35.1 mph 62% 0 in FEW
08:28 54.1 °F 41.4 °F 30.2 in ENE 3.1 mph 35.1 mph 62% 0 in FEW
08:33 54.1 °F 41.4 °F 30.2 in NNE 3.1 mph 35.1 mph 62% 0 in FEW
08:38 54.7 °F 41.5 °F 30.3 in NNE 4.3 mph 35.1 mph 61% 0 in FEW
08:43 54.7 °F 41.5 °F 30.3 in NNE 4.3 mph 35.1 mph 61% 0 in FEW
08:48 54.7 °F 41.5 °F 30.3 in NNE 6.2 mph 35.1 mph 61% 0 in FEW
08:53 54.9 °F 41.7 °F 30.3 in NE 6.2 mph 35.1 mph 61% 0 in FEW
08:58 55 °F 41.4 °F 30.3 in NNE 6.4 mph 35.1 mph 60% 0 in FEW
09:03 55.4 °F 41.7 °F 30.3 in ENE 6.4 mph 35.1 mph 60% 0 in FEW
09:08 55.6 °F 41.5 °F 30.3 in NNE 9.2 mph 35.1 mph 59% 0 in FEW
09:13 55.9 °F 41.7 °F 30.3 in ENE 9.2 mph 35.1 mph 59% 0 in FEW
09:18 55.9 °F 41.4 °F 30.3 in North 10 mph 35.1 mph 58% 0 in FEW
09:23 56.1 °F 41.5 °F 30.3 in NE 10 mph 35.1 mph 58% 0 in FEW
09:28 56.5 °F 41.4 °F 30.3 in NNE 10.2 mph 35.1 mph 57% 0 in FEW
09:33 56.7 °F 41.5 °F 30.3 in NNE 10.2 mph 35.1 mph 57% 0 in FEW
09:38 56.7 °F 41.2 °F 30.3 in NE 12.5 mph 35.1 mph 56% 0 in FEW
09:43 57 °F 41.5 °F 30.3 in ENE 12.5 mph 35.1 mph 56% 0 in FEW
09:48 57.2 °F 41.2 °F 30.3 in NNE 11.2 mph 35.1 mph 55% 0 in FEW
09:53 57.6 °F 41 °F 30.3 in NE 11.2 mph 35.1 mph 54% 0 in FEW
09:58 57.7 °F 41.2 °F 30.3 in North 13.5 mph 35.1 mph 54% 0 in FEW
10:03 57.7 °F 41.2 °F 30.3 in North 13.5 mph 35.1 mph 54% 0 in FEW
10:08 57.7 °F 41.2 °F 30.3 in North 13.7 mph 35.1 mph 54% 0 in FEW
10:13 57.7 °F 40.6 °F 30.3 in NE 13.7 mph 35.1 mph 53% 0 in FEW
10:18 57.9 °F 40.8 °F 30.3 in NE 14 mph 35.1 mph 53% 0 in FEW
10:23 57.9 °F 40.8 °F 30.3 in NE 14 mph 35.1 mph 53% 0 in FEW
10:29 58.5 °F 39.9 °F 30.3 in ENE 11.2 mph 35.1 mph 50% 0 in FEW
10:34 58.6 °F 39.9 °F 30.3 in NNE 11.2 mph 35.1 mph 50% 0 in FEW
10:39 58.5 °F 40.5 °F 30.3 in North 14.5 mph 35.1 mph 51% 0 in FEW
10:44 58.6 °F 39.9 °F 30.3 in NE 14.5 mph 35.1 mph 50% 0 in FEW
10:49 59 °F 38.8 °F 30.3 in NNE 14 mph 35.1 mph 47% 0 in FEW
10:54 58.8 °F 39.2 °F 30.3 in NE 14 mph 35.1 mph 48% 0 in FEW
10:59 59.2 °F 39.9 °F 30.3 in NNE 14 mph 35.1 mph 49% 0 in FEW
11:04 59.2 °F 40.5 °F 30.3 in NE 14 mph 35.1 mph 50% 0 in FEW
11:09 59.2 °F 41.2 °F 30.3 in NNE 13.7 mph 35.1 mph 51% 0 in FEW
11:14 59.4 °F 40.6 °F 30.3 in NNE 13.7 mph 35.1 mph 50% 0 in FEW
11:19 59.5 °F 40.8 °F 30.3 in NE 14 mph 35.1 mph 50% 0 in FEW
11:24 59.7 °F 39.9 °F 30.3 in NNE 14 mph 35.1 mph 48% 0 in FEW
11:29 59.7 °F 39.9 °F 30.3 in ENE 13.5 mph 35.1 mph 48% 0 in FEW
11:34 59.7 °F 40.5 °F 30.3 in NNE 13.5 mph 35.1 mph 49% 0 in FEW
11:39 59.7 °F 39.9 °F 30.3 in NW 14 mph 35.1 mph 48% 0 in FEW
11:44 59.9 °F 40.1 °F 30.3 in NE 14 mph 35.1 mph 48% 0 in FEW
11:45 59.9 °F 40.1 °F 30.3 in NE 14 mph 35.1 mph 48% 0 in FEW
11:50 59.7 °F 40.5 °F 30.3 in NNE 15.2 mph 35.1 mph 49% 0 in FEW
11:55 60.1 °F 40.8 °F 30.3 in North 15.2 mph 35.1 mph 49% 0 in FEW
12:00 60.3 °F 41 °F 30.3 in NNE 13.5 mph 35.1 mph 49% 0 in FEW
12:05 60.4 °F 41.2 °F 30.3 in NE 13.5 mph 35.1 mph 49% 0 in FEW
12:10 60.8 °F 41 °F 30.3 in NNE 11.4 mph 35.1 mph 48% 0 in FEW
12:15 60.6 °F 40.8 °F 30.3 in ENE 11.4 mph 35.1 mph 48% 0 in FEW
12:20 60.6 °F 40.3 °F 30.3 in NNE 12.3 mph 35.1 mph 47% 0 in FEW
12:25 60.6 °F 40.8 °F 30.3 in NE 12.3 mph 35.1 mph 48% 0 in FEW
12:30 61 °F 40.6 °F 30.3 in NNW 13.7 mph 35.1 mph 47% 0 in FEW
12:35 60.6 °F 40.3 °F 30.3 in NE 13.7 mph 35.1 mph 47% 0 in FEW
12:40 60.6 °F 40.8 °F 30.3 in ENE 14.5 mph 35.1 mph 48% 0 in FEW
12:45 60.6 °F 40.8 °F 30.3 in NE 14.5 mph 35.1 mph 48% 0 in FEW
12:50 60.6 °F 41.4 °F 30.3 in NNE 14.5 mph 35.1 mph 49% 0 in FEW
12:55 61 °F 41.2 °F 30.3 in ENE 14.5 mph 35.1 mph 48% 0 in FEW
13:00 61 °F 41.2 °F 30.3 in ENE 13.7 mph 35.1 mph 48% 0 in FEW
13:05 61.2 °F 40.8 °F 30.3 in NNE 13.7 mph 35.1 mph 47% 0 in FEW
13:10 61.3 °F 41.5 °F 30.3 in North 14.7 mph 35.1 mph 48% 0 in FEW
13:15 61.5 °F 41.5 °F 30.3 in NE 14.7 mph 35.1 mph 48% 0 in FEW
13:20 61.3 °F 41.5 °F 30.3 in East 12.3 mph 35.1 mph 48% 0 in FEW
13:25 61.2 °F 41.4 °F 30.3 in North 12.3 mph 35.1 mph 48% 0 in FEW
13:30 61.3 °F 41.5 °F 30.3 in NE 13.7 mph 35.1 mph 48% 0 in FEW
13:35 61.2 °F 40.8 °F 30.3 in NNE 13.7 mph 35.1 mph 47% 0 in FEW
13:40 61.3 °F 40.8 °F 30.3 in East 14.7 mph 35.1 mph 47% 0 in FEW
13:45 62.1 °F 41.5 °F 30.3 in NNE 14.7 mph 35.1 mph 47% 0 in FEW
13:50 62.8 °F 41.7 °F 30.3 in NNE 11.8 mph 35.1 mph 46% 0 in FEW
13:55 62.6 °F 42.1 °F 30.3 in NE 11.8 mph 35.1 mph 47% 0 in FEW
14:00 62.4 °F 42.4 °F 30.3 in ENE 13 mph 35.1 mph 48% 0 in FEW
14:05 62.6 °F 42.1 °F 30.3 in ENE 13 mph 35.1 mph 47% 0 in FEW
14:10 62.2 °F 42.8 °F 30.3 in ENE 14.5 mph 35.1 mph 49% 0 in FEW
14:15 62.8 °F 42.3 °F 30.3 in North 14.5 mph 35.1 mph 47% 0 in FEW
14:20 62.8 °F 42.8 °F 30.3 in NNE 13.7 mph 35.1 mph 48% 0 in FEW
14:25 62.4 °F 42.4 °F 30.3 in ENE 13.7 mph 35.1 mph 48% 0 in FEW
14:30 62.4 °F 41.9 °F 30.3 in ENE 14.5 mph 35.1 mph 47% 0 in FEW
14:35 62.6 °F 43.2 °F 30.3 in NE 14.5 mph 35.1 mph 49% 0 in FEW
14:40 62.8 °F 43.3 °F 30.3 in NE 13.7 mph 35.1 mph 49% 0 in FEW
14:45 63.1 °F 42.6 °F 30.3 in NNE 13.7 mph 35.1 mph 47% 0 in FEW
14:50 63.3 °F 42.3 °F 30.3 in ESE 11.8 mph 35.1 mph 46% 0 in FEW
14:55 63.3 °F 42.6 °F 30.3 in North 11.8 mph 35.1 mph 47% 0 in FEW
15:00 63.5 °F 43 °F 30.3 in NE 13 mph 35.1 mph 47% 0 in FEW
15:05 63 °F 43.5 °F 30.3 in NE 13 mph 35.1 mph 49% 0 in FEW
15:10 63 °F 44.1 °F 30.3 in NNE 14.7 mph 35.1 mph 50% 0 in FEW
15:15 63.5 °F 44.1 °F 30.3 in ENE 14.7 mph 35.1 mph 49% 0 in FEW
15:20 63.1 °F 43.7 °F 30.3 in NE 12.5 mph 35.1 mph 49% 0 in FEW
15:25 62.4 °F 43.5 °F 30.3 in NE 12.5 mph 35.1 mph 50% 0 in FEW
15:30 62.4 °F 43 °F 30.3 in NE 13.5 mph 35.1 mph 49% 0 in FEW
15:35 62.8 °F 42.8 °F 30.3 in NNE 13.5 mph 35.1 mph 48% 0 in FEW
15:40 62.8 °F 42.8 °F 30.3 in ESE 13.7 mph 35.1 mph 48% 0 in FEW
15:46 63.1 °F 43.2 °F 30.3 in NE 13.7 mph 35.1 mph 48% 0 in FEW
15:51 63 °F 43.5 °F 30.3 in NNE 13.5 mph 35.1 mph 49% 0 in FEW
15:56 63.3 °F 42.6 °F 30.3 in NNE 13.5 mph 35.1 mph 47% 0 in FEW
16:01 63.3 °F 43.3 °F 30.3 in NNW 13 mph 35.1 mph 48% 0 in FEW
16:06 63.5 °F 44.1 °F 30.3 in NE 13 mph 35.1 mph 49% 0 in FEW
16:11 63.3 °F 42.3 °F 30.3 in NE 11.4 mph 35.1 mph 46% 0 in FEW
16:16 63 °F 43 °F 30.3 in NE 11.4 mph 35.1 mph 48% 0 in FEW
16:21 63.7 °F 42.4 °F 30.3 in ENE 14 mph 35.1 mph 46% 0 in FEW
16:26 63.5 °F 44.1 °F 30.3 in NE 14 mph 35.1 mph 49% 0 in FEW
16:31 63.1 °F 43.2 °F 30.3 in NE 13.5 mph 35.1 mph 48% 0 in FEW
16:36 63.5 °F 44.1 °F 30.2 in NNE 13.5 mph 35.1 mph 49% 0 in FEW
16:41 63.7 °F 43.5 °F 30.2 in ENE 13.7 mph 35.1 mph 48% 0 in FEW
16:47 63.7 °F 43.5 °F 30.2 in ENE 14 mph 35.1 mph 48% 0 in FEW
16:52 63.5 °F 43.3 °F 30.2 in ENE 14 mph 35.1 mph 48% 0 in FEW
16:57 63.7 °F 44.8 °F 30.2 in NNE 15.2 mph 35.1 mph 50% 0 in FEW
17:03 63.7 °F 45.1 °F 30.2 in NE 15.2 mph 35.1 mph 51% 0 in FEW
17:08 63.3 °F 44.4 °F 30.2 in NE 11.8 mph 35.1 mph 50% 0 in FEW
17:13 63 °F 44.4 °F 30.2 in NNE 11.8 mph 35.1 mph 51% 0 in FEW
17:19 63.1 °F 45.1 °F 30.2 in NE 14.5 mph 35.1 mph 52% 0 in FEW
17:24 63 °F 45.1 °F 30.2 in NNE 14.5 mph 35.1 mph 52% 0 in FEW
17:29 62.4 °F 45.1 °F 30.2 in NE 15 mph 25 mph 53% 0 in FEW
17:34 63 °F 45.5 °F 30.2 in NE 15 mph 22 mph 53% 0 in FEW
17:39 63.1 °F 45.7 °F 30.2 in NE 13 mph 21 mph 53% 0 in FEW
17:44 63.1 °F 45.1 °F 30.2 in ENE 12.5 mph 35.1 mph 52% 0 in FEW
17:49 62.8 °F 45 °F 30.2 in NNE 12.3 mph 35.1 mph 52% 0 in FEW
17:54 63 °F 45.7 °F 30.2 in NE 13 mph 21 mph 53% 0 in FEW
17:59 62.8 °F 46.4 °F 30.2 in NNE 11.8 mph 35.1 mph 55% 0 in FEW
18:04 63 °F 46 °F 30.2 in NE 12 mph 20 mph 54% 0 in FEW
18:09 63.1 °F 45.7 °F 30.2 in East 13 mph 35.1 mph 53% 0 in FEW
18:14 63 °F 45.5 °F 30.2 in NE 13 mph 20 mph 53% 0 in FEW
18:19 62.8 °F 44.4 °F 30.2 in NE 13 mph 24 mph 51% 0 in FEW
18:24 63 °F 44.4 °F 30.2 in ENE 13 mph 24 mph 51% 0 in FEW
18:29 63.1 °F 44.2 °F 30.2 in NE 10.7 mph 35.1 mph 50% 0 in FEW
18:34 63 °F 44.6 °F 30.2 in NE 10 mph 21 mph 51% 0 in FEW
18:39 63 °F 42.4 °F 30.3 in WNW 13 mph 35.1 mph 47% 0 in FEW
18:44 63.1 °F 41.4 °F 30.3 in NE 13 mph 18 mph 45% 0 in FEW
18:49 63.1 °F 41.4 °F 30.3 in ENE 10.7 mph 35.1 mph 45% 0 in FEW
18:54 63 °F 41.4 °F 30.3 in NE 10.7 mph 35.1 mph 45% 0 in FEW
18:59 62.8 °F 41.7 °F 30.3 in NE 9.7 mph 35.1 mph 46% 0 in FEW
19:04 62.4 °F 41.4 °F 30.3 in NNE 9.7 mph 35.1 mph 46% 0 in FEW
19:09 62.6 °F 39.7 °F 30.3 in NE 13 mph 22 mph 43% 0 in FEW
19:14 62.2 °F 41.4 °F 30.3 in NE 13 mph 20 mph 46% 0 in FEW
19:19 61.9 °F 40.8 °F 30.3 in NE 12 mph 23 mph 46% 0 in FEW
19:24 61.9 °F 40.8 °F 30.3 in NE 12 mph 21 mph 46% 0 in FEW
19:29 61.9 °F 41.4 °F 30.3 in ENE 12.3 mph 35.1 mph 47% 0 in FEW
19:34 61.9 °F 41.4 °F 30.3 in NE 13 mph 19 mph 47% 0 in FEW
19:39 61.9 °F 40.8 °F 30.3 in SE 10.7 mph 35.1 mph 46% 0 in FEW
19:44 61.7 °F 39 °F 30.3 in NE 10.7 mph 35.1 mph 43% 0 in FEW
19:49 61.5 °F 39.9 °F 30.3 in ENE 11.2 mph 35.1 mph 45% 0 in FEW
19:54 61.3 °F 40.8 °F 30.3 in NE 12 mph 17 mph 47% 0 in FEW
19:59 61.3 °F 40.8 °F 30.3 in NNW 10.2 mph 35.1 mph 47% 0 in FEW
20:04 61.2 °F 41.2 °F 30.3 in NE 10 mph 19 mph 48% 0 in FEW
20:05 61 °F 41.2 °F 30.3 in ENE 10.2 mph 35.1 mph 48% 0 in FEW
20:10 61 °F 41.2 °F 30.3 in East 10.7 mph 35.1 mph 48% 0 in FEW
20:15 60.6 °F 41.4 °F 30.3 in NE 10.7 mph 35.1 mph 49% 0 in FEW
20:20 60.6 °F 42.4 °F 30.3 in NE 11.4 mph 35.1 mph 51% 0 in FEW
20:25 60.3 °F 42.1 °F 30.3 in NNW 11.4 mph 35.1 mph 51% 0 in FEW
20:30 60.3 °F 42.6 °F 30.3 in NNE 10.7 mph 35.1 mph 52% 0 in FEW
20:35 59.9 °F 42.6 °F 30.3 in NNE 10.7 mph 35.1 mph 53% 0 in FEW
20:40 59.7 °F 43 °F 30.3 in NE 10 mph 35.1 mph 54% 0 in FEW
20:45 59.5 °F 43.3 °F 30.3 in North 10 mph 35.1 mph 55% 0 in FEW
20:50 59.4 °F 43.2 °F 30.3 in NE 11.2 mph 35.1 mph 55% 0 in FEW
20:55 59.4 °F 43.7 °F 30.3 in NE 11.2 mph 35.1 mph 56% 0 in FEW
21:00 59.4 °F 43.7 °F 30.3 in NE 10.2 mph 35.1 mph 56% 0 in FEW
21:05 59.2 °F 43.9 °F 30.3 in NNE 10.2 mph 35.1 mph 57% 0 in FEW
21:10 59.2 °F 43.9 °F 30.3 in NE 8.5 mph 35.1 mph 57% 0 in FEW
21:15 59 °F 43.9 °F 30.3 in NE 8.5 mph 35.1 mph 57% 0 in
21:20 58.8 °F 43.5 °F 30.3 in NE 8.7 mph 35.1 mph 57% 0 in
21:25 58.6 °F 43.9 °F 30.3 in NE 8.7 mph 35.1 mph 58% 0 in
21:30 58.6 °F 43.9 °F 30.3 in NNE 7.4 mph 35.1 mph 58% 0 in
21:35 58.5 °F 43.7 °F 30.3 in NE 7.4 mph 35.1 mph 58% 0 in
21:40 58.5 °F 44.2 °F 30.3 in NNE 7.4 mph 35.1 mph 59% 0 in
21:45 58.3 °F 44.1 °F 30.3 in NNE 7.4 mph 35.1 mph 59% 0 in
21:50 58.1 °F 44.2 °F 30.3 in NE 5.9 mph 35.1 mph 60% 0 in
21:55 57.9 °F 44.1 °F 30.3 in NNE 5.9 mph 35.1 mph 60% 0 in
22:00 57.7 °F 44.4 °F 30.3 in NE 5.2 mph 35.1 mph 61% 0 in
22:05 57.7 °F 44.8 °F 30.3 in NNE 5.2 mph 35.1 mph 62% 0 in
22:10 57.7 °F 44.8 °F 30.3 in NNE 5.2 mph 35.1 mph 62% 0 in
22:15 57.7 °F 45.1 °F 30.3 in NNE 5.2 mph 35.1 mph 63% 0 in CLR
22:20 57.6 °F 45.1 °F 30.3 in NNE 4.7 mph 35.1 mph 63% 0 in CLR
22:25 57.4 °F 45.3 °F 30.3 in NE 4.7 mph 35.1 mph 64% 0 in CLR
22:30 57.6 °F 45.5 °F 30.3 in NNE 5.2 mph 35.1 mph 64% 0 in CLR
22:35 57.4 °F 45.7 °F 30.3 in NNE 5.2 mph 35.1 mph 65% 0 in CLR
22:40 57.4 °F 45.7 °F 30.3 in NE 5.4 mph 35.1 mph 65% 0 in CLR
22:45 57.2 °F 45.5 °F 30.3 in NE 5.4 mph 35.1 mph 65% 0 in CLR
22:50 57 °F 45.9 °F 30.3 in NNE 5.4 mph 35.1 mph 66% 0 in CLR
22:55 56.8 °F 45.7 °F 30.3 in NE 5.4 mph 35.1 mph 66% 0 in CLR
23:01 56.8 °F 46 °F 30.3 in NNE 4.3 mph 35.1 mph 67% 0 in CLR
23:05 56.7 °F 45.9 °F 30.3 in NNE 4.3 mph 35.1 mph 67% 0 in CLR
23:10 56.7 °F 45.9 °F 30.3 in NNE 4.3 mph 35.1 mph 67% 0 in CLR
23:15 56.7 °F 46.2 °F 30.3 in ENE 4.3 mph 35.1 mph 68% 0 in CLR
23:20 56.7 °F 46.2 °F 30.3 in ENE 3.6 mph 35.1 mph 68% 0 in CLR
23:25 56.7 °F 46.2 °F 30.3 in NNE 3.6 mph 35.1 mph 68% 0 in CLR
23:30 56.7 °F 46.2 °F 30.3 in North 3.6 mph 35.1 mph 68% 0 in CLR
23:35 56.7 °F 46.2 °F 30.3 in NE 3.6 mph 35.1 mph 68% 0 in CLR
23:40 56.7 °F 46.6 °F 30.3 in NNE 4.3 mph 35.1 mph 69% 0 in CLR
23:45 56.7 °F 46.6 °F 30.3 in NNE 4.3 mph 35.1 mph 69% 0 in
23:50 56.5 °F 46.4 °F 30.3 in NNE 5.4 mph 35.1 mph 69% 0 in
23:55 56.3 °F 46.6 °F 30.3 in NE 5.4 mph 35.1 mph 70% 0 in
Murcia-Puente Tocinos, España
Compliments of Weather Underground - 2.75 mb

La estación de MeteoMurcia.com, publica sus datos en los siguientes proyectos:

Meteoclimatic www.awekas.at

W3Counter
Web Analytics